IRIDIUM 106 1 41917U 17003A 26038.32604402 .00000035 00000+0 53223-5 0 9990 2 41917 86.4023 142.8376 0001822 89.7848 270.3557 14.34217879474599 IRIDIUM 103 1 41918U 17003B 26038.31336855 .00000419 00000+0 14257-3 0 9992 2 41918 86.4020 142.7430 0002509 93.3617 266.7866 14.34219164474619 IRIDIUM 109 1 41919U 17003C 26038.31970211 .00000343 00000+0 11542-3 0 9993 2 41919 86.4021 142.7977 0002110 96.0326 264.1111 14.34218091474581 IRIDIUM 102 1 41920U 17003D 26038.28798680 .00000323 00000+0 10812-3 0 9996 2 41920 86.4019 142.7370 0002042 99.6868 260.4558 14.34216811474662 IRIDIUM 105 1 41921U 17003E 26038.25754898 .00000372 00000+0 12544-3 0 9995 2 41921 86.3968 111.2253 0002220 98.1329 262.0119 14.34403399476516 IRIDIUM 104 1 41922U 17003F 26038.30067452 .00000343 00000+0 11529-3 0 9995 2 41922 86.4021 142.7726 0002500 100.4214 259.7263 14.34218793474651 IRIDIUM 114 1 41923U 17003G 26038.30701188 .00000424 00000+0 14437-3 0 9998 2 41923 86.4021 142.7531 0002314 95.7852 264.3607 14.34215998474639 IRIDIUM 108 1 41924U 17003H 26038.26553504 .00000136 00000+0 41667-4 0 9997 2 41924 86.3962 111.1097 0002053 100.8083 259.3345 14.34219358476486 IRIDIUM 112 1 41925U 17003J 26038.29433146 .00000312 00000+0 10418-3 0 9995 2 41925 86.4015 142.6067 0002167 99.9629 260.1811 14.34218050474656 IRIDIUM 111 1 41926U 17003K 26038.28164696 .00000177 00000+0 56247-4 0 9996 2 41926 86.4017 142.6798 0002265 97.3039 262.8415 14.34218855474636 IRIDIUM 113 1 42803U 17039A 26038.26161162 -.00000022 00000+0 -15073-4 0 9996 2 42803 86.3984 16.4585 0002340 89.1833 270.9631 14.34217451452569 IRIDIUM 123 1 42804U 17039B 26038.16355238 .00000042 00000+0 77643-5 0 9997 2 42804 86.3929 47.9736 0002345 84.5257 275.6206 14.34217744451317 IRIDIUM 120 1 42805U 17039C 26037.97619340 .00000097 00000+0 27652-4 0 9997 2 42805 86.3969 16.3768 0001892 84.4092 275.7319 14.34218273452516 IRIDIUM 115 1 42806U 17039D 26038.26192239 .00000552 00000+0 15824-3 0 9997 2 42806 86.4509 16.3684 0002220 76.6997 283.4451 14.43282198455522 IRIDIUM 118 1 42807U 17039E 26038.05572852 .00000037 00000+0 61876-5 0 9996 2 42807 86.3928 48.0174 0002356 91.3384 268.8082 14.34217447451299 IRIDIUM 117 1 42808U 17039F 26038.07475610 .00000026 00000+0 23472-5 0 9991 2 42808 86.3927 47.9682 0002292 87.0361 273.1097 14.34217482451325 IRIDIUM 126 1 42809U 17039G 26038.10012600 .00000038 00000+0 66329-5 0 9993 2 42809 86.3929 48.0066 0002389 88.7669 271.3800 14.34217489451309 IRIDIUM 124 1 42810U 17039H 26038.26506004 .00000617 00000+0 17739-3 0 9990 2 42810 86.4536 344.6790 0002276 80.9308 279.2151 14.43281498456373 IRIDIUM 128 1 42811U 17039J 26038.16064327 .00000354 00000+0 11932-3 0 9994 2 42811 86.3921 79.5269 0002004 90.1348 270.0077 14.34218050451344 IRIDIUM 121 1 42812U 17039K 26038.11915056 .00000155 00000+0 48171-4 0 9999 2 42812 86.3930 48.0255 0002114 90.7801 269.3637 14.34217758451182 IRIDIUM 133 1 42955U 17061A 26038.19234641 .00000100 00000+0 28788-4 0 9996 2 42955 86.3920 79.6282 0002244 91.4830 268.6623 14.34217929436149 IRIDIUM 100 1 42956U 17061B 26038.18600342 .00000458 00000+0 15662-3 0 9993 2 42956 86.3920 79.5525 0002180 92.7468 267.3978 14.34218801436148 IRIDIUM 122 1 42957U 17061C 26038.15429082 .00000123 00000+0 36715-4 0 9993 2 42957 86.3919 79.5655 0002272 90.7029 269.4428 14.34217857436147 IRIDIUM 129 1 42958U 17061D 26038.17966087 .00000254 00000+0 83465-4 0 9996 2 42958 86.3918 79.6204 0002445 99.9895 260.1577 14.34217252436166 IRIDIUM 119 1 42959U 17061E 26038.14794852 .00000091 00000+0 25561-4 0 9995 2 42959 86.3921 79.6293 0002418 94.0153 266.1320 14.34217837436174 IRIDIUM 107 1 42960U 17061F 26038.16697586 .00000195 00000+0 62415-4 0 9999 2 42960 86.3922 79.6419 0002307 83.2497 276.8962 14.34218136436189 IRIDIUM 132 1 42961U 17061G 26038.17331779 .00000029 00000+0 32802-5 0 9994 2 42961 86.3920 79.6193 0002194 90.8934 269.2513 14.34217357436183 IRIDIUM 136 1 42962U 17061H 26038.20503169 -.00000016 00000+0 -12812-4 0 9999 2 42962 86.3918 79.6117 0002228 92.7465 267.3985 14.34217208436205 IRIDIUM 139 1 42963U 17061J 26038.14160482 .00000232 00000+0 75787-4 0 9998 2 42963 86.3922 79.6986 0002143 90.4325 269.7116 14.34217719436200 IRIDIUM 125 1 42964U 17061K 26038.12892014 .00000116 00000+0 34398-4 0 9994 2 42964 86.3924 79.7628 0002733 86.2099 273.9409 14.34217266436213 IRIDIUM 135 1 43070U 17083A 26038.31235067 .00000136 00000+0 41614-4 0 9998 2 43070 86.3976 16.2821 0002220 88.5607 271.5844 14.34218701425536 IRIDIUM 138 1 43071U 17083B 26038.26795065 .00000251 00000+0 82428-4 0 9998 2 43071 86.3985 15.9761 0002595 90.6062 269.5431 14.34219829425519 IRIDIUM 116 1 43072U 17083C 26038.30600813 .00000156 00000+0 48776-4 0 9992 2 43072 86.3973 16.2727 0001875 82.8737 277.2672 14.34217470425552 IRIDIUM 130 1 43073U 17083D 26038.27429409 .00000166 00000+0 52374-4 0 9999 2 43073 86.3986 16.5485 0002043 80.8615 279.2812 14.34218943425499 IRIDIUM 151 1 43074U 17083E 26038.31869372 .00000205 00000+0 66248-4 0 9991 2 43074 86.3979 16.3220 0002165 87.5531 272.5913 14.34217949425520 IRIDIUM 134 1 43075U 17083F 26038.00790674 .00000215 00000+0 69735-4 0 9991 2 43075 86.3978 16.4585 0002187 82.6071 277.5373 14.34217449425445 IRIDIUM 137 1 43076U 17083G 26038.29966358 .00000197 00000+0 63261-4 0 9994 2 43076 86.3983 16.4267 0001753 95.0705 265.0691 14.34217534425551 IRIDIUM 141 1 43077U 17083H 26038.22355432 .00000349 00000+0 11772-3 0 9991 2 43077 86.3975 16.2966 0002285 88.0784 272.0674 14.34217339425548 IRIDIUM 153 1 43078U 17083J 26038.31527188 .00000245 00000+0 80583-4 0 9993 2 43078 86.4014 344.7647 0002441 83.2898 276.8575 14.34218249426663 IRIDIUM 131 1 43079U 17083K 26038.00156629 .00000405 00000+0 13762-3 0 9990 2 43079 86.3983 16.5664 0002243 89.7444 270.4009 14.34215705425440 IRIDIUM 144 1 43249U 18030A 26038.32161304 .00000295 00000+0 98380-4 0 9990 2 43249 86.4017 344.6946 0002040 82.4811 277.6617 14.34218039411520 IRIDIUM 149 1 43250U 18030B 26038.25818753 -.00000084 00000+0 -37001-4 0 9992 2 43250 86.4001 344.6896 0002104 85.7722 274.3715 14.34217202411532 IRIDIUM 157 1 43251U 18030C 26038.20744664 -.00000019 00000+0 -13954-4 0 9996 2 43251 86.4006 344.7610 0002037 86.4081 273.7348 14.34217588411503 IRIDIUM 140 1 43252U 18030D 26038.29624330 .00000067 00000+0 16918-4 0 9997 2 43252 86.4011 344.7363 0002162 84.6284 275.5159 14.34217867411576 IRIDIUM 145 1 43253U 18030E 26038.21378868 .00000366 00000+0 12357-3 0 9996 2 43253 86.4013 344.7434 0001891 78.9937 281.1472 14.34218420411495 IRIDIUM 146 1 43254U 18030F 26038.26452999 -.00000068 00000+0 -31219-4 0 9990 2 43254 86.4007 344.7354 0001938 83.7167 276.4250 14.34217498411519 IRIDIUM 148 1 43255U 18030G 26038.30258531 -.00000065 00000+0 -30156-4 0 9998 2 43255 86.4008 344.7605 0002013 86.5448 273.5978 14.34217612411555 IRIDIUM 142 1 43256U 18030H 26038.27087174 .00000372 00000+0 12593-3 0 9991 2 43256 86.4009 344.6672 0001857 77.3319 282.8084 14.34217097411514 IRIDIUM 150 1 43257U 18030J 26038.30892406 .00000111 00000+0 32664-4 0 9991 2 43257 86.4014 344.7633 0002111 82.9616 277.1820 14.34216907411542 IRIDIUM 143 1 43258U 18030K 26038.22012954 .00000290 00000+0 96347-4 0 9991 2 43258 86.4017 344.8877 0002008 81.0297 279.1126 14.34219271411466 IRIDIUM 161 1 43478U 18047C 26038.31234105 .00000518 00000+0 14811-3 0 9995 2 43478 86.4543 142.7664 0002314 100.1940 259.9522 14.43283766406405 IRIDIUM 152 1 43479U 18047D 26038.33238759 .00000202 00000+0 65130-4 0 9998 2 43479 86.4018 142.6185 0002266 97.3509 262.7944 14.34218217403871 IRIDIUM 147 1 43480U 18047E 26038.26896113 .00000117 00000+0 34660-4 0 9995 2 43480 86.4017 142.6476 0001971 97.6003 262.5417 14.34217838403869 IRIDIUM 110 1 43481U 18047F 26038.27530403 .00001134 00000+0 39764-3 0 9993 2 43481 86.4019 142.7332 0002477 103.3916 256.7556 14.34219190403855 IRIDIUM 162 1 43482U 18047G 26038.30602910 .00000552 00000+0 15826-3 0 9997 2 43482 86.4541 142.6617 0002269 90.9164 269.2297 14.43278397406393 IRIDIUM 160 1 43569U 18061A 26038.29090802 .00000171 00000+0 54063-4 0 9992 2 43569 86.3968 111.1317 0002226 100.8658 259.2788 14.34218261394755 IRIDIUM 166 1 43570U 18061B 26038.24650993 -.00000012 00000+0 -11359-4 0 9999 2 43570 86.3962 111.1016 0001965 96.7975 263.3444 14.34217533394779 IRIDIUM 158 1 43571U 18061C 26038.28456621 -.00000106 00000+0 -45029-4 0 9991 2 43571 86.3966 111.0961 0002219 92.3201 267.8249 14.34217259394743 IRIDIUM 165 1 43572U 18061D 26038.30993556 .00000330 00000+0 11074-3 0 9997 2 43572 86.3967 111.1295 0002089 95.6872 264.4562 14.34220391394776 IRIDIUM 155 1 43573U 18061E 26038.27188040 .00000003 00000+0 -61279-5 0 9990 2 43573 86.3966 111.0208 0002017 92.8927 267.2500 14.34217619394738 IRIDIUM 154 1 43574U 18061F 26038.25285815 .00000333 00000+0 11199-3 0 9996 2 43574 86.3967 111.1561 0002045 96.8516 263.2913 14.34222039394783 IRIDIUM 163 1 43575U 18061G 26038.23382451 .00000328 00000+0 11013-3 0 9998 2 43575 86.3966 111.0832 0002245 94.7560 265.3892 14.34219295394757 IRIDIUM 156 1 43576U 18061H 26038.13868535 .00000141 00000+0 43180-4 0 9994 2 43576 86.3963 111.1304 0002121 89.9195 270.2244 14.34218581394734 IRIDIUM 164 1 43577U 18061J 26038.25919458 -.00000093 00000+0 -40411-4 0 9991 2 43577 86.3964 111.1178 0001885 100.1095 260.0314 14.34217308394793 IRIDIUM 159 1 43578U 18061K 26038.29726082 .00000335 00000+0 11255-3 0 9995 2 43578 86.3964 111.0419 0002299 99.0341 261.1115 14.34217898394763 IRIDIUM 180 1 43922U 19002A 26038.08743603 .00000005 00000+0 -53158-5 0 9994 2 43922 86.3926 47.9670 0002173 92.0325 268.1120 14.34217228370344 IRIDIUM 176 1 43923U 19002B 26038.06881452 .00000537 00000+0 81308-4 0 9994 2 43923 86.6051 47.9366 0002459 89.3577 270.7922 14.72252175380100 IRIDIUM 168 1 43924U 19002C 26038.08109887 .00000002 00000+0 -63790-5 0 9996 2 43924 86.3927 48.0432 0002146 90.4854 269.6588 14.34217476370321 IRIDIUM 173 1 43925U 19002D 26038.13818127 .00000042 00000+0 79982-5 0 9990 2 43925 86.3925 47.9132 0002346 87.9812 272.1652 14.34217775370314 IRIDIUM 169 1 43926U 19002E 26038.11339438 .00000347 00000+0 10687-3 0 9995 2 43926 86.4176 79.5884 0002676 75.1220 285.0274 14.38611903371529 IRIDIUM 172 1 43927U 19002F 26038.06207060 .00000085 00000+0 23322-4 0 9995 2 43927 86.3927 47.9526 0002300 94.5345 265.6114 14.34218081370311 IRIDIUM 175 1 43928U 19002G 26038.26807637 .00001569 00000+0 24484-3 0 9991 2 43928 86.1539 347.0851 0001304 78.2261 281.9102 14.72242126380120 IRIDIUM 171 1 43929U 19002H 26038.11280955 .00000151 00000+0 46983-4 0 9999 2 43929 86.3937 48.2236 0002026 87.1419 273.0009 14.34218074370319 IRIDIUM 170 1 43930U 19002J 26038.07500661 .00000541 00000+0 81896-4 0 9990 2 43930 86.6050 47.9373 0002386 93.0271 267.1219 14.72250108380111 IRIDIUM 167 1 43931U 19002K 26038.10645757 .00000294 00000+0 97775-4 0 9999 2 43931 86.3925 47.9552 0002087 79.6632 280.4799 14.34214171370318 IRIDIUM 181 1 56726U 23068S 26038.25250452 .00000470 00000+0 13364-3 0 9999 2 56726 86.4503 111.1274 0002107 106.6240 253.5193 14.43310751143690 IRIDIUM 177 1 56727U 23068T 26037.98668711 .00000941 00000+0 12032-3 0 9994 2 56727 86.1951 30.6012 0002396 89.0341 271.1154 14.80227950147108 IRIDIUM 174 1 56728U 23068U 26038.06262918 .00000590 00000+0 89646-4 0 9990 2 56728 86.6057 48.0768 0002542 91.8162 268.3346 14.72250151146871 IRIDIUM 178 1 56729U 23068V 26038.17860261 .00001572 00000+0 20343-3 0 9997 2 56729 86.6494 79.7085 0001922 84.6824 275.4617 14.80244018147130 IRIDIUM 179 1 56730U 23068W 26038.17321120 .00001546 00000+0 20002-3 0 9998 2 56730 86.6740 88.3097 0002269 91.7749 268.3732 14.80247775147137